Wind_Speed
1 2 5 2 1 1 4 5 8 12 10 6 16 3 4 3 0 1 14 22 22 18 15 13 10 9 8 10 9 9 8 9 10 9 7 7 7 8 9 11 11 11 11 10 10 11 12 14 14
2 2 4 1 2 5 5 7 13 7 13 22 9 8 4 2 1 9 24 22 21 18 14 12 11 10 10 11 9 8 8 9 9 8 8 8 8 9 11 10 10 9 9 9 10 11 12 12 13
5 5 2 2 1 4 6 9 9 14 20 17 6 6 3 2 6 24 21 23 20 17 13 12 11 10 10 10 9 8 8 9 10 8 9 8 9 10 11 10 8 7 8 8 8 9 11 11 11
3 2 1 2 5 4 4 13 19 19 11 5 10 7 4 5 23 12 21 21 18 16 14 12 12 11 10 10 8 7 8 8 8 9 9 9 9 8 10 10 9 8 7 7 8 8 9 10 10
2 2 2 3 4 4 8 17 18 12 10 9 5 6 6 19 17 19 20 19 18 16 14 12 12 11 10 10 9 9 9 8 8 8 7 6 6 5 6 7 7 7 7 7 7 8 8 8 10
2 0 2 3 6 5 7 14 18 9 9 9 6 10 7 14 17 21 20 19 16 14 13 12 11 11 10 10 9 9 8 7 7 6 6 5 4 4 4 4 6 6 7 7 6 7 9 9 9
3 2 4 5 4 2 4 13 7 8 9 6 13 6 6 15 19 19 19 16 16 15 14 12 10 11 10 9 8 7 6 5 5 5 5 6 9 5 3 4 5 6 7 6 6 7 8 8 7
4 1 2 7 2 2 4 6 8 4 4 11 7 4 8 19 22 19 19 16 13 13 12 12 11 11 10 9 8 6 5 4 4 4 5 1 5 9 9 5 5 7 7 7 7 8 8 8 6
4 3 5 3 2 2 7 4 3 4 11 4 4 6 11 26 22 22 21 17 14 14 14 13 12 12 11 9 6 5 4 3 2 1 2 1 3 3 5 6 6 7 8 8 8 8 8 9 7
4 3 2 2 4 6 6 4 5 4 10 3 5 6 25 26 23 22 22 18 16 15 15 14 13 12 11 10 7 5 4 4 2 0 2 7 5 2 6 6 9 9 9 9 8 7 7 8 7
3 3 2 6 11 7 11 6 4 6 6 9 14 21 27 25 22 19 19 16 13 12 14 14 13 12 10 9 7 5 5 4 1 2 3 7 9 7 5 7 5 12 11 10 9 9 8 7 8
4 1 3 6 6 10 8 9 6 1 5 7 13 24 26 23 22 19 16 17 15 14 13 13 12 11 11 10 8 5 2 0 3 6 7 9 10 8 6 5 10 12 15 13 11 11 10 8 8
4 6 4 6 12 12 13 9 5 5 5 8 19 24 23 22 19 18 16 14 14 15 12 13 11 11 12 11 8 4 3 3 4 6 7 7 8 7 5 4 6 11 15 17 14 12 11 10 9
4 5 5 6 9 7 8 5 1 3 6 14 21 21 21 18 22 20 18 16 14 14 14 13 12 11 10 8 6 4 4 2 4 4 4 7 7 6 5 5 4 9 12 15 16 15 13 11 10
2 4 5 7 6 4 8 6 4 8 8 15 18 18 17 17 17 19 19 16 13 15 15 12 12 11 11 7 7 6 5 3 4 5 7 7 5 5 5 4 4 6 9 13 16 17 16 14 13
0 1 3 5 7 3 2 2 5 9 12 16 17 15 15 18 17 19 19 20 14 13 12 11 11 11 9 7 6 5 6 5 4 4 5 7 5 5 4 4 2 3 6 10 14 17 17 17 14
1 1 3 1 2 4 4 4 10 11 14 19 19 17 15 14 18 17 21 21 17 13 8 9 9 7 7 9 8 8 8 9 5 3 4 5 4 4 5 6 4 2 5 7 11 15 17 17 16
2 1 2 2 2 2 4 6 13 16 16 20 20 18 16 19 21 21 24 19 17 15 12 10 10 11 10 11 12 11 10 7 5 4 5 6 5 4 5 5 6 4 5 9 9 11 14 16 15
2 2 1 1 2 3 4 6 12 18 17 18 20 20 20 22 22 22 24 22 20 16 15 14 14 13 13 14 13 12 9 6 5 6 6 6 5 5 5 5 5 6 3 6 9 10 13 15 14
7 3 1 1 0 3 3 5 9 19 20 21 21 22 24 24 22 23 25 25 24 22 21 20 18 16 16 14 12 11 9 7 7 7 8 7 6 4 5 5 6 4 3 6 8 9 10 12 12
9 11 5 1 5 2 3 4 7 11 13 17 19 21 21 23 23 22 23 25 24 24 19 16 14 15 14 14 14 13 12 10 9 6 5 5 6 6 5 5 6 5 4 3 7 8 10 8 10
5 4 7 6 5 0 3 1 5 11 15 16 21 20 22 24 23 21 21 23 23 23 22 20 19 18 14 14 15 16 13 12 8 6 7 8 7 7 6 5 4 5 4 3 6 8 9 12 12
3 1 9 5 3 2 2 3 2 6 13 18 24 26 25 25 23 23 25 24 22 20 18 16 14 15 17 16 15 15 15 13 10 8 5 6 6 6 6 6 5 4 4 4 6 9 9 11 12
11 7 5 3 0 3 3 3 3 6 16 18 23 26 27 26 24 24 24 23 23 20 18 16 14 12 13 16 15 16 14 13 12 10 8 8 8 7 6 7 7 6 5 5 6 8 11 13 15
0 2 2 1 1 2 2 4 6 8 8 13 23 28 29 28 24 24 24 20 19 17 15 14 14 13 11 13 15 15 14 14 13 11 10 8 7 6 5 4 5 6 8 8 8 10 11 13 16
5 1 2 4 3 4 2 5 1 6 4 6 11 18 23 24 24 26 25 24 22 18 17 16 14 13 12 13 14 14 15 14 13 13 11 9 9 8 8 7 7 7 6 9 11 11 14 14 14
5 5 2 1 2 2 2 4 6 6 6 5 7 14 20 19 22 25 23 25 24 19 15 14 15 15 17 18 14 14 13 15 13 12 12 11 11 10 8 9 10 10 10 9 11 14 15 16 16
4 9 2 1 3 5 2 4 0 5 6 7 5 3 10 11 14 17 16 22 20 19 16 16 16 16 17 19 21 19 14 15 14 12 12 12 12 11 10 12 11 12 13 13 15 16 18 19 19
4 3 2 1 1 2 4 3 3 5 3 3 6 8 6 11 13 13 15 13 13 15 12 9 10 12 15 13 14 16 17 16 16 15 13 12 11 11 11 12 13 12 12 14 17 19 19 20 21
3 3 5 4 3 0 3 4 1 4 2 5 6 10 11 10 12 14 17 12 15 12 7 8 12 13 11 10 10 10 12 15 16 15 13 12 11 10 9 9 11 12 12 17 18 22 22 18 18
Wind_Direction
348 351 344 67 191 63 58 59 104 126 141 136 144 149 160 70 113 172 152 156 157 157 147 139 136 141 148 146 143 133 131 134 136 133 138 138 139 129 126 119 119 121 123 117 116 112 118 125 126
1 357 32 323 63 88 79 124 128 147 143 139 113 99 65 73 103 150 146 156 157 160 152 141 138 141 143 140 148 141 138 139 135 129 125 135 127 127 127 127 118 121 120 115 118 123 122 129 131
52 68 3 14 39 70 112 149 133 128 145 149 121 103 107 155 141 146 155 159 161 166 160 145 138 139 140 139 139 140 139 131 134 133 132 129 127 133 136 130 122 118 122 122 121 127 131 132 137
30 96 139 58 54 68 91 145 137 130 138 158 133 96 101 170 144 160 160 163 169 170 165 152 145 146 142 135 128 136 139 139 138 136 145 140 140 137 135 140 141 145 134 134 129 126 133 137 136
81 107 63 79 67 59 91 133 147 148 150 151 168 127 115 149 161 160 161 166 171 171 164 155 154 148 139 134 120 121 130 137 138 137 138 135 129 140 142 144 142 140 143 136 130 143 141 143 139
85 36 60 45 41 55 90 151 153 151 149 151 126 131 142 168 161 158 163 164 168 167 161 156 159 153 145 134 121 116 122 128 129 134 131 113 107 114 129 154 154 146 144 135 127 139 133 133 141
79 51 63 53 38 26 133 156 156 147 150 170 151 123 147 164 164 163 163 163 166 167 165 166 165 159 154 140 131 119 116 122 128 132 122 163 199 169 135 164 162 159 161 151 142 149 150 143 143
98 94 80 39 353 32 150 140 134 146 126 138 144 153 167 172 165 165 161 162 168 175 174 171 168 170 163 154 146 130 120 123 130 134 192 179 266 206 193 154 173 163 167 159 149 157 167 172 150
89 73 91 94 353 334 165 163 87 90 137 136 173 160 167 162 169 173 174 176 179 179 179 176 176 172 168 163 163 162 148 108 109 165 304 335 28 233 197 191 187 186 183 178 161 161 171 186 184
62 89 119 72 326 265 186 137 150 147 152 116 130 142 156 161 164 170 179 180 178 179 178 176 179 176 180 174 184 178 133 95 85 110 292 358 325 245 241 233 201 207 190 194 188 178 169 185 192
93 122 173 18 337 236 153 114 141 166 192 198 182 158 158 163 170 174 176 175 162 163 173 175 179 180 183 177 182 162 117 90 6 333 338 345 334 345 300 256 225 209 208 199 196 196 192 195 199
125 141 166 19 8 129 125 121 105 105 307 266 177 163 159 167 170 174 173 166 161 162 161 165 175 168 176 174 177 173 145 319 321 311 307 320 327 334 329 275 228 212 214 210 208 201 202 207 203
158 171 81 63 81 102 109 84 109 51 34 128 152 160 164 166 168 168 166 167 165 161 163 161 163 172 173 180 183 196 245 285 324 328 321 333 332 324 308 301 237 220 219 216 214 214 209 210 209
123 111 77 69 116 115 102 83 74 79 106 132 155 163 169 173 173 172 178 178 183 169 175 166 168 181 195 202 204 233 247 285 351 344 355 332 317 314 307 306 268 222 225 222 216 216 215 217 214
134 128 150 165 187 127 139 75 71 135 143 146 166 172 176 181 184 188 181 181 182 187 186 186 194 204 219 225 234 252 240 277 320 334 344 341 331 314 304 293 268 227 223 222 215 213 219 221 218
188 248 201 178 177 146 181 101 155 154 158 163 175 187 190 198 195 197 200 199 193 189 193 185 200 213 230 237 230 230 236 273 292 345 5 5 341 347 338 339 318 259 230 223 220 217 218 214 214
155 299 302 266 237 132 215 140 167 170 172 176 185 200 200 206 211 212 190 195 195 202 209 208 224 235 237 235 239 249 266 274 266 306 345 3 359 10 359 355 345 290 245 226 215 215 212 209 208
187 229 221 277 176 222 186 139 159 178 185 188 193 210 206 208 213 204 192 195 207 219 226 235 247 248 250 244 250 262 280 258 252 288 320 326 336 335 354 354 1 334 231 221 210 205 206 205 207
264 207 72 289 146 225 214 191 182 183 189 194 204 213 221 222 214 216 219 226 231 236 245 250 260 253 247 247 248 262 261 246 257 290 299 303 320 327 333 348 349 355 263 214 218 212 208 209 217
231 233 177 134 282 207 203 226 193 189 200 202 203 208 219 225 224 229 228 232 239 248 253 258 262 255 246 246 244 253 249 258 263 285 309 283 291 306 318 333 355 352 336 231 221 220 218 214 220
238 233 195 334 149 133 234 208 186 204 207 211 221 218 220 225 229 230 232 238 245 250 251 257 259 249 244 242 235 239 244 251 259 285 321 312 297 286 293 314 333 339 344 251 238 240 233 233 236
277 198 200 161 189 58 324 279 217 205 210 211 220 220 226 227 231 233 232 236 241 249 258 262 262 257 253 238 237 237 240 247 258 285 289 290 285 284 286 295 310 346 330 277 236 232 230 237 240
359 228 148 121 108 181 190 239 141 188 220 220 216 218 222 226 227 231 234 236 241 249 260 268 269 263 248 239 238 234 234 240 258 272 299 315 302 304 271 281 292 303 340 301 255 245 235 236 245
124 108 101 101 230 243 109 268 212 184 220 216 221 223 222 221 225 227 234 243 248 252 256 261 258 257 239 229 236 236 237 240 247 258 283 295 297 294 306 286 274 271 304 318 267 252 249 253 260
276 187 285 221 216 360 148 246 265 221 204 215 210 221 226 221 221 223 229 229 236 243 250 257 258 257 247 238 239 237 239 239 243 250 265 283 293 293 309 297 296 271 270 280 291 265 262 263 266
184 272 320 328 329 306 164 232 168 205 153 217 228 225 228 228 221 224 226 228 232 237 244 249 249 244 240 242 246 245 240 243 249 253 261 275 282 281 288 293 292 280 266 270 272 275 265 266 269
156 212 62 269 121 263 222 259 256 236 249 216 238 220 213 212 213 221 223 228 229 228 233 244 250 254 248 245 248 251 251 248 254 263 267 272 277 284 284 283 282 284 273 263 263 268 269 269 270
242 141 174 217 301 324 253 270 267 167 193 164 141 166 188 198 198 209 216 227 232 234 244 241 249 259 257 252 250 251 258 261 261 261 270 280 283 282 288 271 275 275 272 280 279 281 276 273 270
154 198 127 151 283 284 308 339 202 198 162 131 126 129 147 157 171 188 197 209 213 211 222 226 245 261 264 252 243 244 250 256 262 265 272 279 290 294 282 283 278 279 279 287 290 286 285 280 281
267 261 220 248 198 201 309 289 336 244 148 142 133 124 126 136 143 161 164 186 170 171 196 252 269 267 239 233 226 232 244 252 256 268 276 285 294 288 289 302 301 301 303 297 293 284 282 282 284
Height
1522 1521 1521 1520 1524 1518 1529 1533 1526 1532 1534 1536 1539 1540 1542 1543 1544 1552 1546 1550 1554 1556 1558 1559 1561 1562 1563 1563 1564 1564 1565 1565 1566 1567 1568 1568 1568 1569 1569 1569 1570 1570 1571 1573 1573 1573 1574 1575 1577
1522 1523 1522 1521 1521 1524 1531 1527 1530 1529 1532 1536 1540 1541 1543 1545 1545 1545 1548 1551 1555 1557 1559 1560 1561 1563 1564 1565 1566 1566 1567 1567 1568 1568 1569 1569 1570 1571 1572 1572 1572 1573 1573 1574 1575 1576 1576 1577 1579
1522 1522 1523 1521 1520 1526 1529 1526 1528 1532 1534 1535 1539 1541 1544 1545 1545 1547 1549 1552 1555 1558 1560 1562 1563 1565 1565 1566 1567 1568 1568 1569 1569 1570 1571 1571 1572 1572 1573 1574 1574 1574 1575 1575 1576 1577 1578 1579 1580
1521 1523 1524 1523 1524 1521 1522 1525 1529 1533 1538 1538 1538 1542 1545 1544 1546 1549 1551 1553 1556 1558 1560 1562 1564 1566 1568 1568 1568 1569 1570 1570 1570 1571 1572 1572 1572 1574 1574 1575 1575 1575 1576 1577 1578 1579 1579 1581 1582
1521 1521 1520 1520 1521 1520 1523 1528 1530 1533 1535 1537 1539 1543 1545 1546 1546 1549 1551 1555 1557 1559 1562 1564 1566 1567 1569 1570 1570 1570 1571 1572 1572 1573 1574 1573 1575 1575 1576 1577 1577 1577 1578 1578 1579 1580 1581 1582 1584
1521 1522 1522 1526 1525 1524 1527 1528 1531 1532 1536 1538 1539 1541 1546 1546 1548 1549 1553 1555 1558 1561 1563 1566 1568 1569 1570 1571 1572 1572 1573 1574 1574 1575 1575 1576 1576 1576 1577 1577 1578 1578 1578 1579 1580 1581 1582 1583 1585
1520 1521 1528 1526 1528 1526 1525 1529 1531 1531 1534 1537 1538 1542 1545 1546 1548 1551 1554 1557 1559 1561 1564 1567 1569 1570 1571 1572 1573 1573 1574 1575 1576 1576 1577 1576 1574 1576 1576 1578 1579 1579 1579 1580 1580 1582 1583 1584 1585
1521 1523 1526 1529 1532 1529 1525 1528 1530 1531 1534 1536 1538 1539 1544 1545 1548 1551 1554 1556 1559 1561 1564 1567 1569 1572 1573 1574 1574 1575 1575 1576 1577 1578 1574 1575 1576 1575 1576 1578 1579 1579 1580 1580 1580 1581 1583 1584 1585
1521 1526 1530 1531 1530 1527 1526 1528 1531 1533 1533 1537 1538 1538 1540 1543 1547 1551 1554 1556 1558 1561 1564 1567 1569 1571 1572 1574 1575 1575 1575 1576 1576 1577 1576 1575 1576 1575 1576 1576 1578 1579 1579 1580 1581 1582 1583 1585 1586
1523 1530 1529 1526 1527 1524 1526 1528 1532 1534 1534 1537 1537 1538 1540 1543 1547 1550 1553 1555 1557 1560 1564 1566 1569 1571 1572 1573 1575 1576 1576 1577 1577 1577 1576 1576 1574 1575 1576 1576 1577 1579 1580 1580 1581 1582 1583 1585 1586
1525 1529 1526 1525 1523 1521 1524 1528 1531 1531 1533 1533 1533 1537 1540 1544 1548 1551 1553 1556 1559 1561 1563 1566 1569 1570 1572 1574 1575 1576 1577 1578 1578 1577 1576 1575 1576 1576 1576 1575 1576 1578 1579 1580 1581 1582 1583 1585 1586
1525 1526 1526 1524 1522 1523 1524 1527 1530 1531 1531 1530 1533 1536 1540 1544 1548 1551 1554 1555 1558 1561 1564 1566 1569 1570 1572 1573 1574 1576 1577 1578 1579 1578 1577 1577 1576 1576 1576 1575 1575 1576 1578 1579 1580 1581 1582 1584 1585
1524 1525 1525 1524 1523 1524 1524 1528 1530 1533 1532 1530 1533 1538 1542 1545 1549 1552 1554 1556 1559 1561 1564 1566 1568 1570 1572 1573 1575 1576 1577 1578 1578 1578 1577 1576 1576 1575 1575 1574 1573 1574 1576 1578 1580 1581 1582 1583 1585
1524 1525 1524 1525 1524 1525 1525 1529 1530 1535 1535 1535 1538 1541 1545 1547 1548 1551 1553 1555 1558 1560 1564 1566 1568 1570 1572 1574 1575 1576 1577 1578 1578 1578 1577 1576 1575 1575 1574 1573 1572 1573 1575 1577 1578 1580 1581 1583 1585
1527 1527 1525 1526 1526 1525 1525 1529 1533 1536 1538 1539 1542 1544 1546 1547 1550 1552 1553 1554 1557 1561 1564 1566 1568 1570 1572 1574 1575 1576 1577 1577 1577 1577 1577 1576 1575 1574 1573 1573 1572 1572 1573 1575 1576 1578 1580 1582 1584
1528 1529 1533 1524 1523 1525 1523 1532 1536 1537 1539 1541 1544 1546 1547 1547 1549 1552 1554 1555 1555 1559 1563 1565 1567 1569 1571 1573 1574 1575 1576 1577 1577 1577 1577 1576 1575 1574 1573 1572 1571 1571 1572 1573 1575 1577 1579 1580 1582
1528 1530 1532 1527 1524 1523 1523 1529 1533 1536 1538 1540 1542 1545 1548 1549 1548 1549 1551 1553 1556 1559 1562 1565 1566 1567 1569 1571 1573 1574 1575 1576 1576 1576 1576 1576 1576 1575 1573 1572 1571 1570 1571 1572 1573 1575 1577 1578 1580
1532 1531 1529 1529 1525 1524 1526 1526 1531 1535 1537 1539 1541 1541 1546 1547 1546 1549 1550 1553 1555 1558 1561 1562 1564 1565 1568 1569 1571 1572 1573 1574 1575 1575 1576 1576 1576 1574 1573 1571 1570 1570 1570 1572 1573 1574 1575 1577 1580
1522 1525 1526 1526 1524 1526 1526 1525 1528 1532 1536 1538 1539 1540 1541 1543 1545 1547 1549 1552 1554 1556 1558 1560 1561 1563 1565 1567 1569 1571 1572 1574 1575 1575 1575 1575 1575 1574 1573 1572 1570 1569 1569 1571 1572 1573 1575 1577 1579
1521 1525 1525 1525 1525 1526 1526 1525 1524 1528 1530 1533 1535 1537 1537 1540 1544 1545 1547 1549 1550 1553 1555 1557 1558 1560 1563 1565 1568 1570 1571 1573 1574 1574 1574 1574 1574 1574 1573 1572 1569 1569 1569 1570 1571 1573 1575 1576 1578
1517 1521 1522 1522 1524 1525 1524 1524 1525 1525 1529 1531 1532 1533 1536 1537 1540 1544 1545 1546 1549 1550 1552 1554 1556 1558 1561 1563 1565 1568 1569 1571 1573 1573 1573 1573 1573 1573 1573 1572 1571 1569 1569 1570 1571 1573 1574 1577 1577
1517 1511 1514 1520 1524 1528 1522 1532 1524 1520 1522 1526 1528 1529 1531 1534 1536 1539 1541 1542 1544 1546 1549 1551 1553 1555 1558 1561 1562 1565 1567 1569 1571 1571 1571 1571 1571 1571 1571 1571 1570 1570 1569 1569 1569 1570 1572 1573 1575
1516 1510 1515 1519 1523 1527 1529 1529 1513 1520 1521 1517 1520 1522 1526 1529 1533 1535 1537 1539 1542 1544 1546 1548 1550 1552 1555 1558 1561 1563 1565 1567 1569 1570 1570 1570 1570 1569 1569 1569 1569 1569 1568 1567 1567 1568 1569 1570 1572
1513 1517 1518 1520 1523 1528 1529 1527 1510 1514 1506 1508 1513 1516 1519 1523 1526 1531 1533 1536 1538 1541 1543 1545 1548 1550 1552 1555 1558 1560 1562 1564 1566 1567 1568 1568 1568 1568 1567 1567 1567 1567 1566 1566 1566 1566 1567 1568 1569
1515 1518 1526 1529 1529 1530 1530 1529 1502 1497 1497 1499 1502 1506 1510 1517 1522 1525 1528 1532 1535 1538 1541 1543 1545 1547 1550 1552 1555 1557 1559 1561 1562 1563 1564 1565 1566 1566 1565 1565 1565 1566 1564 1564 1564 1564 1565 1565 1564
1514 1516 1523 1541 1537 1528 1533 1524 1495 1491 1495 1498 1499 1501 1504 1510 1516 1521 1524 1528 1532 1536 1538 1540 1543 1545 1547 1549 1551 1554 1556 1557 1558 1560 1561 1562 1563 1563 1563 1563 1563 1563 1562 1562 1562 1561 1561 1560 1560
1513 1519 1512 1519 1534 1535 1513 1504 1496 1493 1493 1496 1497 1496 1498 1503 1509 1514 1520 1524 1529 1533 1535 1537 1540 1542 1543 1546 1547 1550 1552 1553 1555 1557 1558 1559 1559 1560 1561 1561 1561 1560 1560 1560 1559 1559 1558 1558 1557
1504 1507 1517 1520 1533 1529 1510 1511 1499 1492 1489 1493 1495 1495 1497 1501 1506 1509 1515 1520 1525 1529 1532 1534 1536 1537 1539 1540 1542 1545 1547 1550 1551 1553 1554 1556 1557 1559 1559 1559 1558 1557 1557 1557 1556 1555 1555 1553 1553
1508 1507 1511 1512 1517 1525 1522 1501 1492 1489 1489 1490 1491 1495 1498 1500 1503 1507 1513 1517 1522 1525 1529 1531 1533 1533 1534 1535 1537 1539 1542 1544 1547 1549 1552 1554 1555 1556 1557 1557 1557 1556 1555 1554 1552 1550 1549 1548 1548
1498 1497 1496 1511 1521 1524 1518 1504 1490 1491 1492 1491 1492 1495 1499 1500 1503 1508 1513 1517 1521 1525 1527 1529 1530 1529 1530 1531 1534 1536 1538 1540 1543 1546 1549 1551 1553 1552 1554 1555 1557 1556 1554 1551 1547 1544 1544 1543 1543